GPS BIIR-13

Last updated on Sun Apr 12 2026 00:02:38 GMT+0000 (Coordinated Universal Time)

1 28474U 04045A 26100.73790340 -.00000056 00000+0 00000+0 0 9990 2 28474 55.1741 327.6136 0170262 314.2226 224.2774 2.00575363157075
UTC large
Height (km)
Speed (km/s)
/
Latitude / Longitude
Inclination (degrees)
Orbital Period (minutes)
Azimuth
Elevation
Range (km)
Doppler Factor

Next 0 passes for location: London (51.5072 / 0.1276)

Sorry there are no passes over London.